Le nostre stazioni meteo in Italia

Pubblicità
Il mio iltempo24.it
Cozzo Spadaro, Italia (16480): Temperatura & dewpoint: 16.06.2017 22:00:00 - 22.06.2017 22:00:00 (CEST)Cozzo Spadaro, Italia (16480): velocità del vento: 16.06.2017 22:00:00 - 22.06.2017 22:00:00 (CEST)Cozzo Spadaro, Italia (16480): direzione del vento: 16.06.2017 22:00:00 - 22.06.2017 22:00:00 (CEST)Cozzo Spadaro, Italia (16480): reduced air pressure: 16.06.2017 22:00:00 - 22.06.2017 22:00:00 (CEST)Cozzo Spadaro, Italia (16480): visibility: 16.06.2017 22:00:00 - 22.06.2017 22:00:00 (CEST)Cozzo Spadaro, Italia (16480): ore di luce: 16.06.2017 22:00:00 - 22.06.2017 22:00:00 (CEST)
Data & Tempo tt [°C] td [°C] ff [km/h] ff [kn] dd ppp [hPa] vv [km] sd [min]
22.06.2017 22:00:00 - - - - - - - -
22.06.2017 21:00:00 - - - - - - - -
22.06.2017 20:00:00 24,0 19,9 11 6 O 1015,9 25 0
22.06.2017 19:00:00 25,0 20,0 13 7 O 1015,9 25 60
22.06.2017 18:00:00 25,8 19,9 15 8 O 1015,9 25 60
22.06.2017 17:00:00 26,6 20,0 16 9 O 1016,0 25 60
22.06.2017 16:00:00 26,8 19,4 16 9 O 1016,2 25 60
22.06.2017 15:00:00 26,6 20,2 16 9 O 1016,5 25 60
22.06.2017 14:00:00 26,0 20,8 15 8 O 1016,9 25 60
22.06.2017 13:00:00 26,4 20,5 13 7 O 1016,9 25 60
22.06.2017 12:00:00 25,8 19,7 13 7 OSO 1016,9 25 60
22.06.2017 11:00:00 25,6 21,1 11 6 SO 1016,4 25 60
22.06.2017 10:00:00 25,8 21,0 8 4 OSO 1015,9 25 60
22.06.2017 09:00:00 24,8 19,2 5 3 O 1016,0 25 60
22.06.2017 08:00:00 23,0 17,5 5 3 O 1015,8 25 60
22.06.2017 07:00:00 - - - - - - - -
22.06.2017 06:00:00 - - - - - - - -
22.06.2017 05:00:00 - - - - - - - -
22.06.2017 04:00:00 - - - - - - - -
22.06.2017 03:00:00 - - - - - - - -
22.06.2017 02:00:00 - - - - - - - -
22.06.2017 01:00:00 - - - - - - - -
22.06.2017 00:00:00 - - - - - - - -
21.06.2017 23:00:00 - - - - - - - -
21.06.2017 22:00:00 - - - - - - - -
21.06.2017 21:00:00 - - - - - - - -
21.06.2017 20:00:00 23,4 19,8 18 10 O 1014,8 25 6
21.06.2017 19:00:00 24,4 20,7 18 10 O 1014,9 25 60
21.06.2017 18:00:00 25,0 20,3 18 10 O 1014,8 25 60
21.06.2017 17:00:00 26,0 21,0 18 10 O 1015,3 25 60
21.06.2017 16:00:00 27,4 20,2 16 9 O 1015,4 25 60
21.06.2017 15:00:00 27,4 17,6 15 8 O 1015,8 25 60
21.06.2017 14:00:00 27,8 17,9 15 8 O 1015,9 25 60
21.06.2017 13:00:00 27,8 17,0 13 7 O 1016,2 25 60
21.06.2017 12:00:00 27,8 18,2 11 6 SO 1015,9 25 60
21.06.2017 11:00:00 27,4 17,3 4 2 S 1015,9 25 60
21.06.2017 10:00:00 26,2 18,4 5 3 O 1015,9 25 60
21.06.2017 09:00:00 26,0 16,3 0 0 N 1015,9 25 60
21.06.2017 08:00:00 23,8 16,1 4 2 ONO 1015,9 25 60
21.06.2017 07:00:00 - - - - - - - -
21.06.2017 06:00:00 - - - - - - - -
21.06.2017 05:00:00 - - - - - - - -
21.06.2017 04:00:00 - - - - - - - -
21.06.2017 03:00:00 - - - - - - - -
21.06.2017 02:00:00 - - - - - - - -
21.06.2017 01:00:00 - - - - - - - -
21.06.2017 00:00:00 - - - - - - - -
20.06.2017 23:00:00 - - - - - - - -
20.06.2017 22:00:00 - - - - - - - -
20.06.2017 21:00:00 - - - - - - - -
20.06.2017 20:00:00 24,0 19,5 9 5 O 1017,9 25 6
20.06.2017 19:00:00 24,4 20,1 8 4 OSO 1017,9 25 60
20.06.2017 18:00:00 24,6 20,3 11 6 SO 1018,1 25 60
20.06.2017 17:00:00 25,4 19,3 8 4 SO 1018,9 25 60
20.06.2017 16:00:00 26,0 19,4 9 5 NE 1018,9 25 60
20.06.2017 15:00:00 26,0 18,9 8 4 SSE 1019,0 25 60
20.06.2017 14:00:00 27,0 18,6 13 7 ESE 1019,2 25 60
20.06.2017 13:00:00 26,8 19,9 15 8 E 1019,4 25 60
20.06.2017 12:00:00 27,0 20,6 15 8 E 1019,4 25 60
20.06.2017 11:00:00 26,6 20,2 13 7 ENE 1019,1 25 60
20.06.2017 10:00:00 26,0 19,9 9 5 NE 1018,9 25 60
20.06.2017 09:00:00 25,0 18,2 8 4 NE 1018,9 25 60
20.06.2017 08:00:00 24,0 17,0 8 4 NE 1018,6 25 54
20.06.2017 07:00:00 - - - - - - - -
20.06.2017 06:00:00 - - - - - - - -
20.06.2017 05:00:00 - - - - - - - -
20.06.2017 04:00:00 - - - - - - - -
20.06.2017 03:00:00 - - - - - - - -
20.06.2017 02:00:00 - - - - - - - -
20.06.2017 01:00:00 - - - - - - - -
20.06.2017 00:00:00 - - - - - - - -
19.06.2017 23:00:00 - - - - - - - -
19.06.2017 22:00:00 - - - - - - - -
19.06.2017 21:00:00 - - - - - - - -
19.06.2017 20:00:00 23,8 20,3 8 4 O 1016,9 25 0
19.06.2017 19:00:00 24,8 20,5 11 6 O 1016,7 25 60
19.06.2017 18:00:00 25,0 20,0 11 6 O 1016,9 25 60
19.06.2017 17:00:00 26,0 20,1 11 6 O 1016,9 25 60
19.06.2017 16:00:00 25,8 20,6 13 7 O 1016,9 25 60
19.06.2017 15:00:00 25,6 20,0 11 6 OSO 1016,9 25 48
19.06.2017 14:00:00 25,2 18,9 11 6 SO 1015,9 25 60
19.06.2017 13:00:00 25,4 18,6 11 6 SO 1016,1 25 60
19.06.2017 12:00:00 25,6 18,8 11 6 OSO 1017,1 25 60
19.06.2017 11:00:00 24,0 16,8 9 5 S 1016,3 25 60
19.06.2017 10:00:00 24,0 16,8 5 3 SSE 1016,3 25 60
19.06.2017 09:00:00 24,0 16,3 4 2 E 1016,2 25 60
19.06.2017 08:00:00 22,8 16,6 4 2 NNE 1016,3 20 48
19.06.2017 07:00:00 - - - - - - - -
19.06.2017 06:00:00 - - - - - - - -
19.06.2017 05:00:00 - - - - - - - -
19.06.2017 04:00:00 - - - - - - - -
19.06.2017 03:00:00 - - - - - - - -
19.06.2017 02:00:00 - - - - - - - -
19.06.2017 01:00:00 - - - - - - - -
19.06.2017 00:00:00 - - - - - - - -
18.06.2017 23:00:00 - - - - - - - -
18.06.2017 22:00:00 - - - - - - - -
18.06.2017 21:00:00 - - - - - - - -
18.06.2017 20:00:00 - - - - - - - -
18.06.2017 19:00:00 - - - - - - - -
18.06.2017 18:00:00 - - - - - - - -
18.06.2017 17:00:00 - - - - - - - -
18.06.2017 16:00:00 - - - - - - - -
18.06.2017 15:00:00 - - - - - - - -
18.06.2017 14:00:00 - - - - - - - -
18.06.2017 13:00:00 - - - - - - - -
18.06.2017 12:00:00 - - - - - - - -
18.06.2017 11:00:00 - - - - - - - -
18.06.2017 10:00:00 - - - - - - - -
18.06.2017 09:00:00 - - - - - - - -
18.06.2017 08:00:00 - - - - - - - -
18.06.2017 07:00:00 - - - - - - - -
18.06.2017 06:00:00 - - - - - - - -
18.06.2017 05:00:00 - - - - - - - -
18.06.2017 04:00:00 - - - - - - - -
18.06.2017 03:00:00 - - - - - - - -
18.06.2017 02:00:00 - - - - - - - -
18.06.2017 01:00:00 - - - - - - - -
18.06.2017 00:00:00 - - - - - - - -
17.06.2017 23:00:00 - - - - - - - -
17.06.2017 22:00:00 - - - - - - - -
17.06.2017 21:00:00 - - - - - - - -
17.06.2017 20:00:00 23,8 19,3 15 8 O 1008,9 10 6
17.06.2017 19:00:00 24,6 20,1 15 8 O 1008,9 10 60
17.06.2017 18:00:00 25,0 20,3 16 9 O 1009,5 10 60
17.06.2017 17:00:00 25,2 20,7 13 7 OSO 1010,4 10 60
17.06.2017 16:00:00 26,2 21,4 13 7 SO 1010,9 12 60
17.06.2017 15:00:00 27,0 20,3 11 6 SO 1011,1 15 60
17.06.2017 14:00:00 26,2 19,4 11 6 OSO 1011,6 25 60
17.06.2017 13:00:00 26,6 19,7 8 4 SSO 1011,7 20 60
17.06.2017 12:00:00 27,2 20,0 5 3 S 1011,6 15 60
17.06.2017 11:00:00 26,0 18,9 5 3 SSO 1011,3 15 60
17.06.2017 10:00:00 26,8 17,6 5 3 SSE 1011,4 10 60
17.06.2017 09:00:00 25,6 19,7 4 2 O 1011,7 10 60
17.06.2017 08:00:00 23,8 18,7 0 0 N 1011,6 10 60
17.06.2017 07:00:00 - - - - - - - -
17.06.2017 06:00:00 - - - - - - - -
17.06.2017 05:00:00 - - - - - - - -
17.06.2017 04:00:00 - - - - - - - -
17.06.2017 03:00:00 - - - - - - - -
17.06.2017 02:00:00 - - - - - - - -
17.06.2017 01:00:00 - - - - - - - -
17.06.2017 00:00:00 - - - - - - - -
16.06.2017 23:00:00 - - - - - - - -
16.06.2017 22:00:00 - - - - - - - -

tt = Temperatura
td = dewpoint
ff = velocità del vento
dd = direzione del vento
ppp = reduced air pressure
vv = visibility
sd = ore di luce

Stazioni seguenti

WeatherPro
AMSI
MeteoEarth